Time,TemperatureF,DewpointF,PressureIn,WindDirection,WindDirectionDegrees,WindSpeedMPH,WindSpeedGustMPH,Humidity,HourlyPrecipIn,Conditions,Clouds,dailyrainin,SoftwareType,DateUTC
2013-06-05 00:02:00,45.0,-99.9,29.84,South,180,9.0,10.0,-999,-99.99,,,-99.99,,2013-06-05 08:02:00,
2013-06-05 00:12:00,45.0,-99.9,29.84,South,185,8.0,9.0,-999,-99.99,,,-99.99,,2013-06-05 08:12:00,
2013-06-05 00:22:00,45.0,-99.9,29.85,South,183,8.0,9.0,-999,-99.99,,,-99.99,,2013-06-05 08:22:00,
2013-06-05 00:32:00,45.0,-99.9,29.85,South,183,8.0,9.0,-999,-99.99,,,-99.99,,2013-06-05 08:32:00,
2013-06-05 00:42:00,45.0,-99.9,29.85,South,181,8.0,10.0,-999,-99.99,,,-99.99,,2013-06-05 08:42:00,
2013-06-05 00:52:00,45.0,-99.9,29.85,South,174,9.0,11.0,-999,-99.99,,,-99.99,,2013-06-05 08:52:00,
2013-06-05 01:02:00,45.0,-99.9,29.85,South,175,8.0,10.0,-999,-99.99,,,-99.99,,2013-06-05 09:02:00,
2013-06-05 01:12:00,45.0,-99.9,29.86,South,182,11.0,12.0,-999,-99.99,,,-99.99,,2013-06-05 09:12:00,
2013-06-05 01:22:00,45.0,-99.9,29.86,South,181,11.0,13.0,-999,-99.99,,,-99.99,,2013-06-05 09:22:00,
2013-06-05 01:33:00,45.0,-99.9,29.86,South,179,9.0,12.0,-999,-99.99,,,-99.99,,2013-06-05 09:33:00,
2013-06-05 01:43:00,45.0,-99.9,29.86,South,175,10.0,12.0,-999,-99.99,,,-99.99,,2013-06-05 09:43:00,
2013-06-05 01:53:00,45.0,-99.9,29.86,SSE,166,10.0,13.0,-999,-99.99,,,-99.99,,2013-06-05 09:53:00,
2013-06-05 02:03:00,45.0,-99.9,29.87,SSE,165,10.0,11.0,-999,-99.99,,,-99.99,,2013-06-05 10:03:00,
2013-06-05 02:13:00,45.0,-99.9,29.87,South,169,11.0,13.0,-999,-99.99,,,-99.99,,2013-06-05 10:13:00,
2013-06-05 02:23:00,45.0,-99.9,29.87,South,173,10.0,12.0,-999,-99.99,,,-99.99,,2013-06-05 10:23:00,
2013-06-05 02:33:00,45.0,-99.9,29.87,South,171,11.0,13.0,-999,-99.99,,,-99.99,,2013-06-05 10:33:00,
2013-06-05 02:43:00,45.0,-99.9,29.88,South,177,12.0,14.0,-999,-99.99,,,-99.99,,2013-06-05 10:43:00,
2013-06-05 02:53:00,45.0,-99.9,29.88,South,174,12.0,15.0,-999,-99.99,,,-99.99,,2013-06-05 10:53:00,
2013-06-05 03:02:00,45.0,-99.9,29.88,South,177,13.0,15.0,-999,-99.99,,,-99.99,,2013-06-05 11:02:00,
2013-06-05 03:13:00,45.0,-99.9,29.88,South,182,13.0,16.0,-999,-99.99,,,-99.99,,2013-06-05 11:13:00,
2013-06-05 03:22:00,45.0,-99.9,29.88,South,182,14.0,16.0,-999,-99.99,,,-99.99,,2013-06-05 11:22:00,
2013-06-05 03:33:00,45.0,-99.9,29.88,South,179,13.0,15.0,-999,-99.99,,,-99.99,,2013-06-05 11:33:00,
2013-06-05 03:42:00,45.0,-99.9,29.88,South,182,14.0,16.0,-999,-99.99,,,-99.99,,2013-06-05 11:42:00,
2013-06-05 03:52:00,45.0,-99.9,29.89,South,179,13.0,15.0,-999,-99.99,,,-99.99,,2013-06-05 11:52:00,
2013-06-05 04:02:00,45.0,-99.9,29.89,South,184,14.0,17.0,-999,-99.99,,,-99.99,,2013-06-05 12:02:00,
2013-06-05 04:12:00,45.0,-99.9,29.89,South,185,13.0,16.0,-999,-99.99,,,-99.99,,2013-06-05 12:12:00,
2013-06-05 04:22:00,45.0,-99.9,29.89,South,182,12.0,15.0,-999,-99.99,,,-99.99,,2013-06-05 12:22:00,
2013-06-05 04:32:00,45.0,-99.9,29.89,South,182,13.0,16.0,-999,-99.99,,,-99.99,,2013-06-05 12:32:00,
2013-06-05 04:44:00,45.0,-99.9,29.89,South,178,13.0,15.0,-999,-99.99,,,-99.99,,2013-06-05 12:44:00,
2013-06-05 04:52:00,45.0,-99.9,29.89,South,178,12.0,15.0,-999,-99.99,,,-99.99,,2013-06-05 12:52:00,
2013-06-05 05:02:00,45.0,-99.9,29.89,South,181,13.0,16.0,-999,-99.99,,,-99.99,,2013-06-05 13:02:00,
2013-06-05 05:12:00,45.0,-99.9,29.90,South,181,13.0,16.0,-999,-99.99,,,-99.99,,2013-06-05 13:12:00,
2013-06-05 05:22:00,45.0,-99.9,29.90,South,185,14.0,17.0,-999,-99.99,,,-99.99,,2013-06-05 13:22:00,
2013-06-05 05:33:00,45.0,-99.9,29.90,South,186,14.0,16.0,-999,-99.99,,,-99.99,,2013-06-05 13:33:00,
2013-06-05 05:42:00,45.0,-99.9,29.90,South,182,13.0,16.0,-999,-99.99,,,-99.99,,2013-06-05 13:42:00,
2013-06-05 05:53:00,45.0,-99.9,29.90,South,180,15.0,18.0,-999,-99.99,,,-99.99,,2013-06-05 13:53:00,
2013-06-05 06:02:00,45.0,-99.9,29.90,South,187,13.0,18.0,-999,-99.99,,,-99.99,,2013-06-05 14:02:00,
2013-06-05 06:12:00,45.0,-99.9,29.90,South,184,13.0,17.0,-999,-99.99,,,-99.99,,2013-06-05 14:12:00,
2013-06-05 06:22:00,45.0,-99.9,29.91,South,181,13.0,18.0,-999,-99.99,,,-99.99,,2013-06-05 14:22:00,
2013-06-05 06:32:00,45.0,-99.9,29.91,South,184,13.0,16.0,-999,-99.99,,,-99.99,,2013-06-05 14:32:00,
2013-06-05 06:42:00,45.0,-99.9,29.91,South,185,14.0,16.0,-999,-99.99,,,-99.99,,2013-06-05 14:42:00,
2013-06-05 06:52:00,45.0,-99.9,29.91,South,189,15.0,19.0,-999,-99.99,,,-99.99,,2013-06-05 14:52:00,
2013-06-05 07:03:00,46.0,-99.9,29.92,South,189,13.0,17.0,-999,-99.99,,,-99.99,,2013-06-05 15:03:00,
2013-06-05 07:12:00,46.0,-99.9,29.92,South,185,11.0,14.0,-999,-99.99,,,-99.99,,2013-06-05 15:12:00,
2013-06-05 07:23:00,46.0,-99.9,29.92,South,189,13.0,15.0,-999,-99.99,,,-99.99,,2013-06-05 15:23:00,
2013-06-05 07:33:00,46.0,-99.9,29.92,South,186,11.0,16.0,-999,-99.99,,,-99.99,,2013-06-05 15:33:00,
2013-06-05 07:43:00,46.0,-99.9,29.92,South,176,10.0,13.0,-999,-99.99,,,-99.99,,2013-06-05 15:43:00,
2013-06-05 07:53:00,46.0,-99.9,29.93,SSE,168,10.0,13.0,-999,-99.99,,,-99.99,,2013-06-05 15:53:00,
2013-06-05 08:04:00,46.0,-99.9,29.93,South,171,10.0,14.0,-999,-99.99,,,-99.99,,2013-06-05 16:04:00,
2013-06-05 08:13:00,47.0,-99.9,29.93,South,171,9.0,12.0,-999,-99.99,,,-99.99,,2013-06-05 16:13:00,
2013-06-05 08:23:00,47.0,-99.9,29.93,South,169,11.0,13.0,-999,-99.99,,,-99.99,,2013-06-05 16:23:00,
2013-06-05 08:32:00,47.0,-99.9,29.94,South,180,12.0,14.0,-999,-99.99,,,-99.99,,2013-06-05 16:32:00,
2013-06-05 08:42:00,47.0,-99.9,29.94,South,186,12.0,15.0,-999,-99.99,,,-99.99,,2013-06-05 16:42:00,
2013-06-05 08:54:00,47.0,-99.9,29.94,South,187,12.0,16.0,-999,-99.99,,,-99.99,,2013-06-05 16:54:00,
2013-06-05 09:03:00,47.0,-99.9,29.94,South,184,11.0,13.0,-999,-99.99,,,-99.99,,2013-06-05 17:03:00,
2013-06-05 09:13:00,47.0,-99.9,29.94,South,182,10.0,12.0,-999,-99.99,,,-99.99,,2013-06-05 17:13:00,
2013-06-05 09:22:00,47.0,-99.9,29.95,South,187,9.0,11.0,-999,-99.99,,,-99.99,,2013-06-05 17:22:00,
2013-06-05 09:33:00,48.0,-99.9,29.95,South,179,8.0,10.0,-999,-99.99,,,-99.99,,2013-06-05 17:33:00,
2013-06-05 09:43:00,48.0,-99.9,29.95,South,179,8.0,11.0,-999,-99.99,,,-99.99,,2013-06-05 17:43:00,
2013-06-05 09:52:00,48.0,-99.9,29.95,South,179,9.0,11.0,-999,-99.99,,,-99.99,,2013-06-05 17:52:00,
2013-06-05 10:02:00,47.0,-99.9,29.96,SSW,196,9.0,11.0,-999,-99.99,,,-99.99,,2013-06-05 18:02:00,
2013-06-05 10:13:00,47.0,-99.9,29.96,SSW,203,9.0,11.0,-999,-99.99,,,-99.99,,2013-06-05 18:13:00,
2013-06-05 10:23:00,47.0,-99.9,29.96,SSW,196,10.0,11.0,-999,-99.99,,,-99.99,,2013-06-05 18:23:00,
2013-06-05 10:32:00,47.0,-99.9,29.96,SSW,202,9.0,11.0,-999,-99.99,,,-99.99,,2013-06-05 18:32:00,
2013-06-05 10:42:00,47.0,-99.9,29.97,SSW,193,11.0,12.0,-999,-99.99,,,-99.99,,2013-06-05 18:42:00,
2013-06-05 10:52:00,48.0,-99.9,29.97,South,175,7.0,11.0,-999,-99.99,,,-99.99,,2013-06-05 18:52:00,
2013-06-05 11:03:00,47.0,-99.9,29.98,SSW,194,10.0,11.0,-999,-99.99,,,-99.99,,2013-06-05 19:03:00,
2013-06-05 11:13:00,47.0,-99.9,29.98,SSW,195,9.0,11.0,-999,-99.99,,,-99.99,,2013-06-05 19:13:00,
2013-06-05 11:23:00,48.0,-99.9,29.98,South,185,7.0,10.0,-999,-99.99,,,-99.99,,2013-06-05 19:23:00,
2013-06-05 11:32:00,49.0,-99.9,29.98,South,179,6.0,8.0,-999,-99.99,,,-99.99,,2013-06-05 19:32:00,
2013-06-05 11:42:00,48.0,-99.9,29.98,South,184,7.0,8.0,-999,-99.99,,,-99.99,,2013-06-05 19:42:00,
2013-06-05 11:53:00,48.0,-99.9,29.98,South,187,6.0,8.0,-999,-99.99,,,-99.99,,2013-06-05 19:53:00,
2013-06-05 12:03:00,48.0,-99.9,29.98,South,189,7.0,8.0,-999,-99.99,,,-99.99,,2013-06-05 20:03:00,
2013-06-05 12:12:00,48.0,-99.9,29.98,South,191,6.0,7.0,-999,-99.99,,,-99.99,,2013-06-05 20:12:00,
2013-06-05 12:23:00,48.0,-99.9,29.98,SSW,196,6.0,7.0,-999,-99.99,,,-99.99,,2013-06-05 20:23:00,
2013-06-05 12:32:00,49.0,-99.9,29.98,SSW,198,5.0,6.0,-999,-99.99,,,-99.99,,2013-06-05 20:32:00,
2013-06-05 12:42:00,50.0,-99.9,29.98,South,190,2.0,5.0,-999,-99.99,,,-99.99,,2013-06-05 20:42:00,
2013-06-05 12:52:00,50.0,-99.9,29.98,SSW,213,4.0,5.0,-999,-99.99,,,-99.99,,2013-06-05 20:52:00,
2013-06-05 13:02:00,49.0,-99.9,29.98,SW,221,4.0,6.0,-999,-99.99,,,-99.99,,2013-06-05 21:02:00,
2013-06-05 13:12:00,49.0,-99.9,29.98,SW,229,3.0,4.0,-999,-99.99,,,-99.99,,2013-06-05 21:12:00,
2013-06-05 13:23:00,49.0,-99.9,29.99,WSW,253,3.0,4.0,-999,-99.99,,,-99.99,,2013-06-05 21:23:00,
2013-06-05 13:33:00,48.0,-99.9,29.99,WSW,248,3.0,4.0,-999,-99.99,,,-99.99,,2013-06-05 21:33:00,
2013-06-05 13:43:00,49.0,-99.9,29.99,West,264,2.0,4.0,-999,-99.99,,,-99.99,,2013-06-05 21:43:00,
2013-06-05 13:53:00,50.0,-99.9,29.99,West,269,3.0,4.0,-999,-99.99,,,-99.99,,2013-06-05 21:53:00,
2013-06-05 14:03:00,50.0,-99.9,29.99,WSW,254,1.0,2.0,-999,-99.99,,,-99.99,,2013-06-05 22:03:00,
2013-06-05 14:13:00,50.0,-99.9,29.99,WSW,251,2.0,3.0,-999,-99.99,,,-99.99,,2013-06-05 22:13:00,
2013-06-05 14:22:00,50.0,-99.9,29.99,WSW,254,2.0,3.0,-999,-99.99,,,-99.99,,2013-06-05 22:22:00,
2013-06-05 14:33:00,48.0,-99.9,29.99,WSW,258,3.0,3.0,-999,-99.99,,,-99.99,,2013-06-05 22:33:00,
2013-06-05 14:43:00,50.0,-99.9,29.99,West,266,2.0,3.0,-999,-99.99,,,-99.99,,2013-06-05 22:43:00,
2013-06-05 14:53:00,50.0,-99.9,29.99,WNW,296,1.0,3.0,-999,-99.99,,,-99.99,,2013-06-05 22:53:00,
2013-06-05 15:02:00,50.0,-99.9,29.99,WNW,283,5.0,5.0,-999,-99.99,,,-99.99,,2013-06-05 23:02:00,
2013-06-05 15:12:00,49.0,-99.9,29.99,WNW,292,4.0,5.0,-999,-99.99,,,-99.99,,2013-06-05 23:12:00,
2013-06-05 15:22:00,49.0,-99.9,29.99,WNW,294,4.0,5.0,-999,-99.99,,,-99.99,,2013-06-05 23:22:00,
2013-06-05 15:32:00,49.0,-99.9,29.99,WNW,301,1.0,4.0,-999,-99.99,,,-99.99,,2013-06-05 23:32:00,
2013-06-05 15:42:00,49.0,-99.9,29.99,NW,325,2.0,3.0,-999,-99.99,,,-99.99,,2013-06-05 23:42:00,
2013-06-05 15:53:00,49.0,-99.9,29.98,WNW,284,3.0,4.0,-999,-99.99,,,-99.99,,2013-06-05 23:53:00,
2013-06-05 16:02:00,49.0,-99.9,29.98,WNW,289,3.0,5.0,-999,-99.99,,,-99.99,,2013-06-06 00:02:00,
2013-06-05 16:12:00,49.0,-99.9,29.98,West,278,5.0,6.0,-999,-99.99,,,-99.99,,2013-06-06 00:12:00,
2013-06-05 16:22:00,49.0,-99.9,29.98,West,277,4.0,6.0,-999,-99.99,,,-99.99,,2013-06-06 00:22:00,
2013-06-05 16:32:00,50.0,-99.9,29.98,NW,317,2.0,3.0,-999,-99.99,,,-99.99,,2013-06-06 00:32:00,
2013-06-05 16:43:00,48.0,-99.9,29.98,NNW,327,2.0,2.0,-999,-99.99,,,-99.99,,2013-06-06 00:43:00,
2013-06-05 16:52:00,48.0,-99.9,29.98,NW,312,3.0,4.0,-999,-99.99,,,-99.99,,2013-06-06 00:52:00,
2013-06-05 17:02:00,48.0,-99.9,29.98,North,352,2.0,3.0,-999,-99.99,,,-99.99,,2013-06-06 01:02:00,
2013-06-05 17:13:00,48.0,-99.9,29.98,NNW,334,4.0,4.0,-999,-99.99,,,-99.99,,2013-06-06 01:13:00,
2013-06-05 17:22:00,49.0,-99.9,29.98,NNW,334,4.0,4.0,-999,-99.99,,,-99.99,,2013-06-06 01:22:00,
2013-06-05 17:32:00,49.0,-99.9,29.98,NNW,346,4.0,4.0,-999,-99.99,,,-99.99,,2013-06-06 01:32:00,
2013-06-05 17:42:00,50.0,-99.9,29.98,NNE,18,4.0,4.0,-999,-99.99,,,-99.99,,2013-06-06 01:42:00,
2013-06-05 17:53:00,51.0,-99.9,29.98,North,6,4.0,4.0,-999,-99.99,,,-99.99,,2013-06-06 01:53:00,
2013-06-05 18:02:00,52.0,-99.9,29.98,North,5,3.0,4.0,-999,-99.99,,,-99.99,,2013-06-06 02:02:00,
2013-06-05 18:12:00,53.0,-99.9,29.98,NNW,345,2.0,3.0,-999,-99.99,,,-99.99,,2013-06-06 02:12:00,
2013-06-05 18:22:00,53.0,-99.9,29.98,NNW,347,3.0,3.0,-999,-99.99,,,-99.99,,2013-06-06 02:22:00,
2013-06-05 18:32:00,52.0,-99.9,29.98,NW,324,2.0,3.0,-999,-99.99,,,-99.99,,2013-06-06 02:32:00,
2013-06-05 18:42:00,52.0,-99.9,29.98,NW,324,2.0,3.0,-999,-99.99,,,-99.99,,2013-06-06 02:42:00,
2013-06-05 18:52:00,52.0,-99.9,29.98,NW,324,2.0,3.0,-999,-99.99,,,-99.99,,2013-06-06 02:52:00,
2013-06-05 19:02:00,53.0,-99.9,29.97,WNW,302,3.0,3.0,-999,-99.99,,,-99.99,,2013-06-06 03:02:00,
2013-06-05 19:12:00,53.0,-99.9,29.97,WNW,282,3.0,3.0,-999,-99.99,,,-99.99,,2013-06-06 03:12:00,
2013-06-05 19:22:00,55.0,-99.9,29.96,West,280,3.0,4.0,-999,-99.99,,,-99.99,,2013-06-06 03:22:00,
2013-06-05 19:33:00,54.0,-99.9,29.96,West,266,2.0,3.0,-999,-99.99,,,-99.99,,2013-06-06 03:33:00,
2013-06-05 19:43:00,52.0,-99.9,29.96,NW,321,3.0,4.0,-999,-99.99,,,-99.99,,2013-06-06 03:43:00,
2013-06-05 19:53:00,53.0,-99.9,29.96,NNW,334,3.0,4.0,-999,-99.99,,,-99.99,,2013-06-06 03:53:00,
2013-06-05 20:03:00,52.0,-99.9,29.96,NNW,327,5.0,5.0,-999,-99.99,,,-99.99,,2013-06-06 04:03:00,
2013-06-05 20:13:00,51.0,-99.9,29.95,NW,326,7.0,7.0,-999,-99.99,,,-99.99,,2013-06-06 04:13:00,
2013-06-05 20:23:00,52.0,-99.9,29.95,NNW,335,6.0,7.0,-999,-99.99,,,-99.99,,2013-06-06 04:23:00,
2013-06-05 20:33:00,52.0,-99.9,29.95,NNW,347,6.0,6.0,-999,-99.99,,,-99.99,,2013-06-06 04:33:00,
2013-06-05 20:42:00,52.0,-99.9,29.95,North,355,6.0,6.0,-999,-99.99,,,-99.99,,2013-06-06 04:42:00,
2013-06-05 20:53:00,52.0,-99.9,29.95,North,354,6.0,7.0,-999,-99.99,,,-99.99,,2013-06-06 04:53:00,
2013-06-05 21:02:00,53.0,-99.9,29.95,North,10,5.0,6.0,-999,-99.99,,,-99.99,,2013-06-06 05:02:00,
2013-06-05 21:12:00,52.0,-99.9,29.95,North,352,7.0,8.0,-999,-99.99,,,-99.99,,2013-06-06 05:12:00,
2013-06-05 21:23:00,52.0,-99.9,29.95,NNW,342,7.0,8.0,-999,-99.99,,,-99.99,,2013-06-06 05:23:00,
2013-06-05 21:32:00,53.0,-99.9,29.94,North,351,8.0,9.0,-999,-99.99,,,-99.99,,2013-06-06 05:32:00,
2013-06-05 21:42:00,53.0,-99.9,29.94,North,357,8.0,10.0,-999,-99.99,,,-99.99,,2013-06-06 05:42:00,
2013-06-05 21:52:00,50.0,-99.9,29.94,North,7,8.0,10.0,-999,-99.99,,,-99.99,,2013-06-06 05:52:00,
2013-06-05 22:02:00,56.0,-99.9,29.94,NE,50,5.0,7.0,-999,-99.99,,,-99.99,,2013-06-06 06:02:00,
2013-06-05 22:12:00,56.0,-99.9,29.94,NE,55,5.0,6.0,-999,-99.99,,,-99.99,,2013-06-06 06:12:00,
2013-06-05 22:22:00,56.0,-99.9,29.94,ENE,60,5.0,7.0,-999,-99.99,,,-99.99,,2013-06-06 06:22:00,
2013-06-05 22:33:00,56.0,-99.9,29.94,NE,55,6.0,6.0,-999,-99.99,,,-99.99,,2013-06-06 06:33:00,
2013-06-05 22:42:00,56.0,-99.9,29.94,ENE,59,5.0,7.0,-999,-99.99,,,-99.99,,2013-06-06 06:42:00,
2013-06-05 22:52:00,56.0,-99.9,29.94,NE,56,5.0,7.0,-999,-99.99,,,-99.99,,2013-06-06 06:52:00,
2013-06-05 23:02:00,56.0,-99.9,29.94,ENE,58,4.0,5.0,-999,-99.99,,,-99.99,,2013-06-06 07:02:00,
2013-06-05 23:12:00,56.0,-99.9,29.95,East,84,3.0,6.0,-999,-99.99,,,-99.99,,2013-06-06 07:12:00,
2013-06-05 23:22:00,55.0,-99.9,29.95,ESE,105,3.0,5.0,-999,-99.99,,,-99.99,,2013-06-06 07:22:00,
2013-06-05 23:33:00,55.0,-99.9,29.95,SE,135,7.0,9.0,-999,-99.99,,,-99.99,,2013-06-06 07:33:00,
2013-06-05 23:42:00,53.0,-99.9,29.95,SE,125,6.0,11.0,-999,-99.99,,,-99.99,,2013-06-06 07:42:00,
2013-06-05 23:52:00,53.0,-99.9,29.95,SE,125,8.0,11.0,-999,-99.99,,,-99.99,,2013-06-06 07:52:00,